Ely, MN

3:29 AM CDT on September 28, 2016 (GMT -0500)
Ely Municipal

Weather History for KELO - January, 2013

Change the Weather History Date:

Wednesday, January 16, 2013

  Actual Average Record
Temperature  
Mean Temperature 8 °F -  
Max Temperature 23 °F 14 °F 35 °F (1999)
Min Temperature -9 °F -1 °F -38 °F (2005)
Degree Days  
Heating Degree Days 57    
Moisture  
Dew Point 5 °F    
Average Humidity 77    
Maximum Humidity 100    
Minimum Humidity 56    
Precipitation  
Precipitation 0.01 in - - ()
Sea Level Pressure  
Sea Level Pressure 29.71 in    
Wind  
Wind Speed 12 mph (WNW)    
Max Wind Speed 18 mph    
Max Gust Speed 28 mph    
Visibility 8 miles    
Events Snow    
Averages and records for this station are not official NWS values.
T = Trace of Precipitation, MM = Missing Value Source: NWS Daily Summary

Daily Weather History Graph

Daily Weather History Graph

Search for Another Location

Airport or City:

Trip Planner

Search our weather history database for the weather conditions in past years. The results will help you decide how hot, cold, wet, or windy it might be!

Date:

Astronomy

Jan. 16, 2013 Rise Set
Actual Time 7:50 AM CST 4:44 PM CST
Civil Twilight 7:15 AM CST 5:18 PM CST
Nautical Twilight 6:37 AM CST 5:57 PM CST
Astronomical Twilight 6:00 AM CST 6:34 PM CST
Moon 9:59 AM CST (1/16) 11:06 PM CST (1/16)
Length of Visible Light 10h 03m
Length of Day
8h 53m
Waxing Crescent, 28% of the Moon is Illuminated
Jan 16
Waxing Crescent
Jan 18
First Quarter
Jan 26
Full
Feb 3
Last Quarter
Feb 10
New

Hourly Weather History & Observations

Time (CST) Temp. Windchill Dew Point Humidity Pressure Visibility Wind Dir Wind Speed Gust Speed Precip Events Conditions
12:13 AM 19.4 °F 6.0 °F 10.4 °F 68% 29.50 in 7.0 mi SSW 13.8 mph 20.7 mph N/A Snow Light Snow
12:33 AM 19.4 °F 5.0 °F 12.2 °F 74% 29.48 in 5.0 mi SSW 16.1 mph 23.0 mph N/A Snow Light Snow
12:53 AM 19.4 °F 5.5 °F 15.8 °F 86% 29.46 in 2.5 mi SSW 15.0 mph 21.9 mph N/A Snow Light Snow
1:13 AM 19.4 °F 5.5 °F 15.8 °F 86% 29.44 in 2.5 mi SSW 15.0 mph 18.4 mph N/A Snow Light Snow
1:32 AM 19.4 °F 7.2 °F 15.8 °F 86% 29.43 in 1.8 mi SSW 11.5 mph 21.9 mph N/A Snow Light Snow
1:53 AM 19.4 °F 7.2 °F 17.6 °F 93% 29.41 in 1.2 mi SSW 11.5 mph 24.2 mph N/A Snow Light Snow
2:13 AM 19.4 °F 5.0 °F 17.6 °F 93% 29.42 in 1.5 mi SW 16.1 mph 24.2 mph N/A Snow Light Snow
2:33 AM 19.4 °F 6.0 °F 17.6 °F 93% 29.42 in 1.2 mi SW 13.8 mph 21.9 mph N/A Snow Light Snow
2:53 AM 19.4 °F 7.2 °F 17.6 °F 93% 29.42 in 2.5 mi SW 11.5 mph 16.1 mph 0.01 in Snow Light Snow
3:12 AM 19.4 °F 7.2 °F 17.6 °F 93% 29.42 in 4.0 mi SW 11.5 mph 17.3 mph N/A Snow Light Snow
3:33 AM 21.2 °F 10.1 °F 19.4 °F 93% 29.42 in 3.0 mi WSW 10.4 mph - N/A Snow Light Snow
3:52 AM 21.2 °F 10.1 °F 19.4 °F 93% 29.41 in 3.0 mi SW 10.4 mph 17.3 mph N/A Snow Light Snow
4:13 AM 21.2 °F 10.1 °F 19.4 °F 93% 29.41 in 2.5 mi WSW 10.4 mph 16.1 mph N/A Snow Light Snow
4:32 AM 21.2 °F 10.9 °F 21.2 °F 100% 29.41 in 3.0 mi WSW 9.2 mph 17.3 mph N/A Snow Light Snow
4:53 AM 21.2 °F 10.9 °F 19.4 °F 93% 29.41 in 10.0 mi WSW 9.2 mph - N/A   Overcast
5:13 AM 21.2 °F 10.1 °F 21.2 °F 100% 29.41 in 10.0 mi WSW 10.4 mph 20.7 mph N/A   Overcast
5:32 AM 21.2 °F 10.1 °F 21.2 °F 100% 29.41 in 7.0 mi West 10.4 mph 17.3 mph N/A   Overcast
5:53 AM 21.2 °F 10.1 °F 21.2 °F 100% 29.43 in 5.0 mi West 10.4 mph 16.1 mph N/A   Overcast
6:13 AM 21.2 °F 11.7 °F 21.2 °F 100% 29.43 in 7.0 mi West 8.1 mph - N/A   Overcast
6:32 AM 23.0 °F 13.9 °F 21.2 °F 93% 29.44 in 7.0 mi WNW 8.1 mph 17.3 mph N/A   Overcast
6:53 AM 21.2 °F 10.9 °F 21.2 °F 100% 29.46 in 10.0 mi WNW 9.2 mph 18.4 mph N/A   Overcast
7:13 AM 21.2 °F 8.9 °F 19.4 °F 93% 29.48 in 10.0 mi NW 12.7 mph 18.4 mph N/A   Overcast
7:32 AM 21.2 °F 7.8 °F 19.4 °F 93% 29.49 in 10.0 mi NW 15.0 mph 23.0 mph N/A   Overcast
7:53 AM 21.2 °F 8.3 °F 17.6 °F 86% 29.51 in 10.0 mi NW 13.8 mph 20.7 mph N/A   Overcast
8:13 AM 19.4 °F 6.6 °F 17.6 °F 93% 29.52 in 10.0 mi WNW 12.7 mph 20.7 mph N/A Snow Light Snow
8:32 AM 19.4 °F 7.2 °F 17.6 °F 93% 29.53 in 7.0 mi NW 11.5 mph 16.1 mph N/A Snow Light Snow
8:53 AM 19.4 °F 7.2 °F 15.8 °F 86% 29.55 in 4.0 mi NNW 11.5 mph 18.4 mph N/A Snow Light Snow
9:13 AM 17.6 °F 3.7 °F 15.8 °F 93% 29.56 in 5.0 mi WNW 13.8 mph 20.7 mph N/A Snow Light Snow
9:33 AM 17.6 °F 6.4 °F 14.0 °F 86% 29.58 in 2.0 mi NW 9.2 mph 17.3 mph N/A Snow Light Snow
9:53 AM 17.6 °F 3.7 °F 12.2 °F 79% 29.59 in 3.0 mi NW 13.8 mph 19.6 mph N/A Snow Light Snow
10:13 AM 17.6 °F 5.0 °F 12.2 °F 79% 29.60 in 2.5 mi NW 11.5 mph 17.3 mph N/A Snow Light Snow
10:33 AM 17.6 °F 5.0 °F 10.4 °F 73% 29.61 in 4.0 mi NW 11.5 mph 18.4 mph N/A Snow Light Snow
10:53 AM 15.8 °F 0.9 °F 10.4 °F 79% 29.63 in 3.0 mi NW 15.0 mph 21.9 mph N/A Snow Light Snow
11:13 AM 15.8 °F 2.1 °F 10.4 °F 79% 29.64 in 4.0 mi NW 12.7 mph 19.6 mph N/A Snow Light Snow
11:33 AM 15.8 °F 2.1 °F 8.6 °F 73% 29.65 in 10.0 mi WNW 12.7 mph 18.4 mph N/A Snow Light Snow
11:53 AM 15.8 °F 1.4 °F 6.8 °F 68% 29.66 in 10.0 mi WNW 13.8 mph 21.9 mph N/A   Scattered Clouds
12:13 PM 17.6 °F 5.0 °F 6.8 °F 63% 29.67 in 10.0 mi WNW 11.5 mph 19.6 mph N/A   Scattered Clouds
12:32 PM 15.8 °F 1.4 °F 3.2 °F 58% 29.68 in 10.0 mi NW 13.8 mph 23.0 mph N/A   Scattered Clouds
12:53 PM 15.8 °F 1.4 °F 5.0 °F 62% 29.69 in 10.0 mi NNW 13.8 mph 21.9 mph N/A   Scattered Clouds
1:13 PM 14.0 °F -1.4 °F 3.2 °F 62% 29.70 in 10.0 mi NW 15.0 mph 24.2 mph N/A   Scattered Clouds
1:32 PM 12.2 °F -1.8 °F 1.4 °F 62% 29.71 in 10.0 mi NW 11.5 mph 23.0 mph N/A   Scattered Clouds
1:53 PM 12.2 °F -5.3 °F 1.4 °F 62% 29.73 in 10.0 mi WNW 18.4 mph 27.6 mph N/A   Clear
2:13 PM 12.2 °F -0.2 °F 1.4 °F 62% 29.75 in 10.0 mi NW 9.2 mph 20.7 mph N/A   Clear
2:32 PM 12.2 °F -1.8 °F 1.4 °F 62% 29.77 in 10.0 mi NW 11.5 mph 21.9 mph N/A   Clear
2:53 PM 10.4 °F -6.0 °F -0.4 °F 62% 29.79 in 10.0 mi NW 15.0 mph 21.9 mph N/A   Clear
3:13 PM 10.4 °F -6.6 °F -0.4 °F 62% 29.81 in 10.0 mi NW 16.1 mph 23.0 mph N/A   Clear
3:32 PM 10.4 °F -6.0 °F -2.2 °F 57% 29.82 in 10.0 mi NW 15.0 mph 20.7 mph N/A   Clear
3:53 PM 8.6 °F -7.0 °F -2.2 °F 62% 29.84 in 10.0 mi WNW 12.7 mph 18.4 mph N/A   Clear
4:12 PM 8.6 °F -2.6 °F -0.4 °F 67% 29.86 in 10.0 mi NNW 6.9 mph 19.6 mph N/A   Scattered Clouds
4:33 PM 8.6 °F -3.7 °F -4.0 °F 57% 29.88 in 10.0 mi NW 8.1 mph 19.6 mph N/A   Scattered Clouds
4:53 PM 6.8 °F -8.6 °F -5.8 °F 56% 29.90 in 10.0 mi NNW 11.5 mph 17.3 mph N/A   Clear
5:12 PM 5.0 °F -8.1 °F -7.6 °F 56% 29.91 in 10.0 mi NW 8.1 mph 19.6 mph N/A   Clear
5:33 PM 3.2 °F -10.3 °F -9.4 °F 56% 29.93 in 10.0 mi NW 8.1 mph - N/A   Clear
5:53 PM 3.2 °F -9.1 °F -9.4 °F 56% 29.95 in 10.0 mi NW 6.9 mph - N/A   Clear
6:12 PM 1.4 °F -12.5 °F -7.6 °F 66% 29.96 in 10.0 mi NW 8.1 mph - N/A   Clear
6:33 PM 1.4 °F -17.6 °F -7.6 °F 66% 29.99 in 10.0 mi NW 15.0 mph 21.9 mph N/A   Scattered Clouds
6:53 PM 1.4 °F -14.5 °F -9.4 °F 61% 30.00 in 10.0 mi NW 10.4 mph 20.7 mph N/A   Clear
7:13 PM -0.4 °F -12.0 °F -9.4 °F 66% 30.02 in 10.0 mi NW 5.8 mph - N/A   Clear
7:33 PM -0.4 °F -14.7 °F -9.4 °F 66% 30.02 in 10.0 mi NNW 8.1 mph - N/A   Clear
7:53 PM -2.2 °F -18.9 °F -11.2 °F 66% 30.03 in 10.0 mi NW 10.4 mph 18.4 mph N/A   Clear
8:13 PM -2.2 °F -16.8 °F -11.2 °F 66% 30.04 in 10.0 mi NW 8.1 mph - N/A   Clear
8:33 PM -2.2 °F -18.0 °F -11.2 °F 66% 30.05 in 10.0 mi NW 9.2 mph - N/A   Clear
8:53 PM -4.0 °F -17.8 °F -11.2 °F 71% 30.05 in 10.0 mi NNW 6.9 mph - N/A   Clear
9:13 PM -5.8 °F -16.7 °F -11.2 °F 77% 30.06 in 10.0 mi NW 4.6 mph - N/A   Scattered Clouds
9:33 PM -5.8 °F -14.5 °F -11.2 °F 77% 30.07 in 10.0 mi NW 3.5 mph - N/A   Scattered Clouds
9:52 PM -5.8 °F -14.5 °F -11.2 °F 77% 30.07 in 10.0 mi NW 3.5 mph - N/A   Clear
10:13 PM -5.8 °F -18.4 °F -11.2 °F 77% 30.06 in 10.0 mi NNW 5.8 mph - N/A   Clear
10:33 PM -7.6 °F -18.8 °F -11.2 °F 84% 30.08 in 10.0 mi WNW 4.6 mph - N/A   Clear
10:52 PM -7.6 °F -18.8 °F -13.0 °F 77% 30.10 in 10.0 mi WNW 4.6 mph - N/A   Clear
11:13 PM -7.6 °F -20.6 °F -13.0 °F 77% 30.11 in 7.0 mi NW 5.8 mph - N/A   Clear
11:33 PM -7.6 °F -16.5 °F -14.8 °F 71% 30.11 in 10.0 mi West 3.5 mph - N/A   Clear
11:52 PM -9.4 °F -22.7 °F -14.8 °F 77% 30.13 in 10.0 mi WNW 5.8 mph - N/A   Clear